This is the latest recevied weather packets stored in our database for station/object KV4OP. If no packets are shown the sender has not sent any weather packets the latest 10 day(s).
| Time | Temp. | Humidity | Pressure | Rain* | Wind** | Luminosity | Snow |
|---|---|---|---|---|---|---|---|
| 1788108940 | 32.78° C | 55% | 1018.5 hPa | 0 mm | - | - | - |
| 1788108639 | 32.22° C | 60% | 1018.6 hPa | 0 mm | - | - | - |
| 1788108339 | 32.78° C | 57% | 1018.7 hPa | 0 mm | - | - | - |
| 1788108048 | 32.78° C | 59% | 1018.8 hPa | 0 mm | - | - | - |
| 1788107739 | 32.22° C | 60% | 1018.9 hPa | 0 mm | - | - | - |
| 1788107439 | 31.67° C | 59% | 1018.9 hPa | 0 mm | - | - | - |
| 1788107139 | 31.67° C | 61% | 1018.8 hPa | 0 mm | - | - | - |
| 1788106851 | 32.22° C | 61% | 1018.7 hPa | 0 mm | - | - | - |
| 1788106539 | 31.67° C | 60% | 1018.7 hPa | 0 mm | - | - | - |
| 1788106240 | 32.22° C | 59% | 1018.7 hPa | 0 mm | - | - | - |
| 1788105940 | 32.22° C | 62% | 1018.7 hPa | 0 mm | - | - | - |
| 1788105648 | 31.11° C | 62% | 1018.6 hPa | 0 mm | - | - | - |
| 1788105339 | 31.67° C | 61% | 1018.7 hPa | 0 mm | - | - | - |
| 1788105040 | 31.67° C | 63% | 1018.8 hPa | 0 mm | - | - | - |
| 1788104740 | 31.67° C | 65% | 1018.8 hPa | 0 mm | - | - | - |
| 1788104449 | 31.67° C | 61% | 1018.9 hPa | 0 mm | - | - | - |
| 1788104139 | 31.11° C | 63% | 1019 hPa | 0 mm | - | - | - |
| 1788103839 | 31.11° C | 64% | 1019.1 hPa | 0 mm | - | - | - |
| 1788103542 | 31.67° C | 60% | 1019.3 hPa | 0 mm | - | - | - |
| 1788103249 | 31.11° C | 63% | 1019.4 hPa | 0 mm | - | - | - |
| 1788102940 | 30.56° C | 65% | 1019.4 hPa | 0 mm | - | - | - |
| 1788102640 | 30.56° C | 65% | 1019.4 hPa | 0 mm | - | - | - |
| 1788102339 | 30° C | 66% | 1019.4 hPa | 0 mm | - | - | - |
| 1788102049 | 30° C | 68% | 1019.5 hPa | 0 mm | - | - | - |
| 1788101739 | 30° C | 68% | 1019.5 hPa | 0 mm | - | - | - |
* Rain latest hour (hover to see other rain measurements)
** Current wind speed in m/s (hover to see current wind gust speed)